Terminal Aerodrome Forecast
Issued by NWS

Current Version | Previous Version | Text Only | Print | Product List | Glossary Off
Versions: 1 2 3 4 5 6 7 8 9 10 11 12 13 14 15 16 17 18 19

000
FTUS41 KRNK 231720
TAFLWB
TAF
KLWB 231720Z 2318/2418 32006KT P6SM OVC025
     FM232100 33006KT P6SM SCT035
     FM240000 VRB03KT P6SM SKC
     FM240700 00000KT 6SM BR BKN250
     FM241300 29003KT P6SM OVC150=

USA.gov is the U.S. government's official web portal to all federal, state and local government web resources and services.